Location: Molalla
(45.1473°N, 122.5770°W)
Time: 02:02:37
(UTC-08:00)

Courier 1B - Visible Passes

Search period start: 13 November 2019 00:00
Search period end: 23 November 2019 00:00
Orbit: 963 x 1209 km, 28.3° (Epoch: 12 November)

Date Brightness Start Highest point End Pass type
(mag) Time Alt. Az. Time Alt. Az. Time Alt. Az.
18 Nov 10.0 06:11:37 10° SSW 06:14:34 13° SSE 06:17:27 10° SE visible
19 Nov 10.0 05:19:11 10° S 05:21:06 11° SSE 05:22:59 10° SE visible
20 Nov 9.8 06:16:22 10° SSW 06:20:27 17° S 06:24:27 10° SE visible
21 Nov 9.8 05:23:07 10° SSW 05:26:58 15° SSE 05:30:43 10° SE visible
22 Nov 9.8 04:30:18 10° SSW 04:33:29 14° SSE 04:36:47 10° SE visible
22 Nov 9.7 06:21:50 10° SW 06:26:23 18° S 06:30:47 10° SE visible
